This is the latest recevied weather packets stored in our database for station/object SV2RIM-2. If no packets are shown the sender has not sent any weather packets the latest 1 day(s).
| Time | Temp. | Humidity | Pressure | Rain* | Wind** | Luminosity | Snow |
|---|---|---|---|---|---|---|---|
| 1777990219 | 32.22° C | 21% | 1012.9 hPa | - | 0.45 m/s, 199° | - | - |
| 1777989619 | 32.78° C | 20% | 1012.9 hPa | - | 0.45 m/s, 220° | - | - |
| 1777989019 | 31.67° C | 22% | 1013 hPa | - | 0.89 m/s, 208° | - | - |
| 1777988419 | 31.67° C | 22% | 1013.2 hPa | - | 0.89 m/s, 223° | - | - |
| 1777987819 | 30° C | 24% | 1013.2 hPa | - | 1.34 m/s, 201° | - | - |
| 1777987219 | 30.56° C | 24% | 1013.2 hPa | - | 0.89 m/s, 202° | - | - |
| 1777986619 | 29.44° C | 26% | 1013.3 hPa | - | 0.45 m/s, 239° | - | - |
| 1777986019 | 30° C | 25% | 1013.4 hPa | - | 0.89 m/s, 210° | - | - |
| 1777985419 | 30.56° C | 24% | 1013.6 hPa | - | 0.89 m/s, 198° | - | - |
| 1777984819 | 31.11° C | 23% | 1013.6 hPa | - | 0.89 m/s, 235° | - | - |
| 1777984219 | 30.56° C | 23% | 1013.8 hPa | - | 0.45 m/s, 222° | - | - |
| 1777983619 | 30.56° C | 24% | 1013.9 hPa | - | 0.45 m/s, 208° | - | - |
| 1777983019 | 29.44° C | 24% | 1014 hPa | - | 0.89 m/s, 193° | - | - |
| 1777982419 | 28.89° C | 25% | 1014.2 hPa | - | 0.89 m/s, 202° | - | - |
| 1777981819 | 30° C | 24% | 1014.3 hPa | - | 0.89 m/s, 249° | - | - |
| 1777981219 | 30.56° C | 23% | 1014.3 hPa | - | 0.89 m/s, 299° | - | - |
| 1777980619 | 30° C | 23% | 1014.4 hPa | - | 0.45 m/s, 240° | - | - |
| 1777980019 | 28.33° C | 24% | 1014.6 hPa | - | 0.45 m/s, 318° | - | - |
| 1777979419 | 28.33° C | 25% | 1014.7 hPa | - | 1.34 m/s, 339° | - | - |
| 1777978819 | 28.89° C | 23% | 1014.9 hPa | - | 0.89 m/s, 322° | - | - |
| 1777978219 | 28.33° C | 23% | 1014.9 hPa | - | 0.89 m/s, 269° | - | - |
| 1777977619 | 27.78° C | 24% | 1015 hPa | - | 1.34 m/s, 246° | - | - |
| 1777977019 | 27.22° C | 25% | 1015.1 hPa | - | 0.89 m/s, 232° | - | - |
| 1777976419 | 26.67° C | 25% | 1015.2 hPa | - | 1.34 m/s, 294° | - | - |
| 1777975819 | 26.11° C | 26% | 1015.3 hPa | - | 1.34 m/s, 272° | - | - |
* Rain since midnight (hover to see other rain measurements)
** Current wind speed in m/s (hover to see current wind gust speed)